User: anonymous   Login
Location: Kailua
(21.4020°N, 157.7390°W)
Time: 11:46:39
(UTC-10:00)
Language:

Cosmos 2221 Rocket - Orbit

View from above orbital plane
View from above orbital plane
View from above satellite
View from above satellite

Ground track
Ground track

The orbit data is extracted from the following two-line orbital elements,

1 22237U 92080B   15154.43976203  .00000160  00000-0  18774-4 0  9993
2 22237 082.5130 090.4379 0021182 118.3634 015.5930 14.78139523213416
Epoch (UTC): 03 June 2015 10:33:15
Eccentricity: 0.0021182
inclination: 82.5130°
perigee height: 620 km
apogee height: 650 km
right ascension of ascending node: 90.4379°
argument of perigee: 118.3634°
revolutions per day: 14.78139523
mean anomaly at epoch: 15.5930°
orbit number at epoch: 21341

The dashed part of the orbit path shows where the satellite is in the earth's shadow,  

DLR